Year,Month,Day,Hour,Minute,Value (Times are PST for temperature in C)
2016,04,28,00,00,10.60
2016,04,28,00,01,10.60
2016,04,28,00,02,10.70
2016,04,28,00,03,10.60
2016,04,28,00,04,10.60
2016,04,28,00,05,10.60
2016,04,28,00,06,10.60
2016,04,28,00,07,10.60
2016,04,28,00,08,10.60
2016,04,28,00,09,10.60
2016,04,28,00,10,10.60
2016,04,28,00,11,10.60
2016,04,28,00,12,10.60
2016,04,28,00,13,10.60
2016,04,28,00,14,10.60
2016,04,28,00,15,10.60
2016,04,28,00,16,10.60
2016,04,28,00,17,10.60
2016,04,28,00,18,10.60
2016,04,28,00,19,10.60
2016,04,28,00,20,10.60
2016,04,28,00,21,10.60
2016,04,28,00,22,10.60
2016,04,28,00,23,10.60
2016,04,28,00,24,10.60
2016,04,28,00,25,10.60
2016,04,28,00,26,10.60
2016,04,28,00,27,10.60
2016,04,28,00,28,10.60
2016,04,28,00,29,10.60
2016,04,28,00,30,10.60
2016,04,28,00,31,10.60
2016,04,28,00,32,10.60
2016,04,28,00,33,10.60
2016,04,28,00,34,10.60
2016,04,28,00,35,10.60
2016,04,28,00,36,10.60
2016,04,28,00,37,10.60
2016,04,28,00,38,10.60
2016,04,28,00,39,10.60
2016,04,28,00,40,10.60
2016,04,28,00,41,10.60
2016,04,28,00,42,10.60
2016,04,28,00,43,10.60
2016,04,28,00,44,10.60
2016,04,28,00,45,10.60
2016,04,28,00,46,10.60
2016,04,28,00,47,10.60
2016,04,28,00,48,10.60
2016,04,28,00,49,10.60
2016,04,28,00,50,10.60
2016,04,28,00,51,10.60
2016,04,28,00,52,10.60
2016,04,28,00,53,10.60
2016,04,28,00,54,10.60
2016,04,28,00,55,10.60
2016,04,28,00,56,10.60
2016,04,28,00,57,10.60
2016,04,28,00,58,10.60
2016,04,28,00,59,10.60
2016,04,28,01,00,10.60
2016,04,28,01,01,10.60
2016,04,28,01,02,10.60
2016,04,28,01,03,10.60
2016,04,28,01,04,10.60
2016,04,28,01,05,10.60
2016,04,28,01,06,10.50
2016,04,28,01,07,10.50
2016,04,28,01,08,10.50
2016,04,28,01,09,10.50
2016,04,28,01,10,10.50
2016,04,28,01,11,10.50
2016,04,28,01,12,10.50
2016,04,28,01,13,10.50
2016,04,28,01,14,10.40
2016,04,28,01,15,10.40
2016,04,28,01,16,10.40
2016,04,28,01,17,10.40
2016,04,28,01,18,10.40
2016,04,28,01,19,10.40
2016,04,28,01,20,10.40
2016,04,28,01,21,10.40
2016,04,28,01,22,10.40
2016,04,28,01,23,10.40
2016,04,28,01,24,10.40
2016,04,28,01,25,10.40
2016,04,28,01,26,10.40
2016,04,28,01,27,10.40
2016,04,28,01,28,10.40
2016,04,28,01,29,10.40
2016,04,28,01,30,10.40
2016,04,28,01,31,10.40
2016,04,28,01,32,10.40
2016,04,28,01,33,10.40
2016,04,28,01,34,10.40
2016,04,28,01,35,10.50
2016,04,28,01,36,10.50
2016,04,28,01,37,10.50
2016,04,28,01,38,10.50
2016,04,28,01,39,10.50
2016,04,28,01,40,10.50
2016,04,28,01,41,10.50
2016,04,28,01,42,10.50
2016,04,28,01,43,10.60
2016,04,28,01,44,10.60
2016,04,28,01,45,10.60
2016,04,28,01,46,10.60
2016,04,28,01,47,10.60
2016,04,28,01,48,10.60
2016,04,28,01,49,10.60
2016,04,28,01,50,10.60
2016,04,28,01,51,10.60
2016,04,28,01,52,10.60
2016,04,28,01,53,10.60
2016,04,28,01,54,10.70
2016,04,28,01,55,10.70
2016,04,28,01,56,10.70
2016,04,28,01,57,10.70
2016,04,28,01,58,10.70
2016,04,28,01,59,10.70
2016,04,28,02,00,10.70
2016,04,28,02,01,10.70
2016,04,28,02,02,10.70
2016,04,28,02,03,10.70
2016,04,28,02,04,10.70
2016,04,28,02,05,10.70
2016,04,28,02,06,10.70
2016,04,28,02,07,10.60
2016,04,28,02,08,10.60
2016,04,28,02,09,10.60
2016,04,28,02,10,10.60
2016,04,28,02,11,10.60
2016,04,28,02,12,10.60
2016,04,28,02,13,10.60
2016,04,28,02,14,10.60
2016,04,28,02,15,10.60
2016,04,28,02,16,10.60
2016,04,28,02,17,10.60
2016,04,28,02,18,10.60
2016,04,28,02,19,10.60
2016,04,28,02,20,10.60
2016,04,28,02,21,10.60
2016,04,28,02,22,10.60
2016,04,28,02,23,10.60
2016,04,28,02,24,10.70
2016,04,28,02,25,10.70
2016,04,28,02,26,10.70
2016,04,28,02,27,10.70
2016,04,28,02,28,10.70
2016,04,28,02,29,10.70
2016,04,28,02,30,10.70
2016,04,28,02,31,10.70
2016,04,28,02,32,10.70
2016,04,28,02,33,10.70
2016,04,28,02,34,10.70
2016,04,28,02,35,10.70
2016,04,28,02,36,10.70
2016,04,28,02,37,10.70
2016,04,28,02,38,10.70
2016,04,28,02,39,10.70
2016,04,28,02,40,10.70
2016,04,28,02,41,10.70
2016,04,28,02,42,10.70
2016,04,28,02,43,10.70
2016,04,28,02,44,10.70
2016,04,28,02,45,10.70
2016,04,28,02,46,10.60
2016,04,28,02,47,10.60
2016,04,28,02,48,10.60
2016,04,28,02,49,10.60
2016,04,28,02,50,10.60
2016,04,28,02,51,10.60
2016,04,28,02,52,10.60
2016,04,28,02,53,10.60
2016,04,28,02,54,10.60
2016,04,28,02,55,10.60
2016,04,28,02,56,10.60
2016,04,28,02,57,10.60
2016,04,28,02,58,10.60
2016,04,28,02,59,10.60
2016,04,28,03,00,10.60
2016,04,28,03,01,10.60
2016,04,28,03,02,10.60
2016,04,28,03,03,10.60
2016,04,28,03,04,10.60
2016,04,28,03,05,10.60
2016,04,28,03,06,10.60
2016,04,28,03,07,10.60
2016,04,28,03,08,10.70
2016,04,28,03,09,10.70
2016,04,28,03,10,10.70
2016,04,28,03,11,10.70
2016,04,28,03,12,10.70
2016,04,28,03,13,10.70
2016,04,28,03,14,10.70
2016,04,28,03,15,10.70
2016,04,28,03,16,10.70
2016,04,28,03,17,10.70
2016,04,28,03,18,10.70
2016,04,28,03,19,10.70
2016,04,28,03,20,10.80
2016,04,28,03,21,10.80
2016,04,28,03,22,10.80
2016,04,28,03,23,10.80
2016,04,28,03,24,10.80
2016,04,28,03,25,10.80
2016,04,28,03,26,10.80
2016,04,28,03,27,10.80
2016,04,28,03,28,10.80
2016,04,28,03,29,10.80
2016,04,28,03,30,10.90
2016,04,28,03,31,10.90
2016,04,28,03,32,10.90
2016,04,28,03,33,11.00
2016,04,28,03,34,11.00
2016,04,28,03,35,11.10
2016,04,28,03,36,11.10
2016,04,28,03,37,11.10
2016,04,28,03,38,11.20
2016,04,28,03,39,11.20
2016,04,28,03,40,11.20
2016,04,28,03,41,11.20
2016,04,28,03,42,11.20
2016,04,28,03,43,11.30
2016,04,28,03,44,11.30
2016,04,28,03,45,11.30
2016,04,28,03,46,11.30
2016,04,28,03,47,11.40
2016,04,28,03,48,11.40
2016,04,28,03,49,11.40
2016,04,28,03,50,11.40
2016,04,28,03,51,11.40
2016,04,28,03,52,11.40
2016,04,28,03,53,11.40
2016,04,28,03,54,11.40
2016,04,28,03,55,11.40
2016,04,28,03,56,11.40
2016,04,28,03,57,11.40
2016,04,28,03,58,11.40
2016,04,28,03,59,11.40
2016,04,28,04,00,11.40
2016,04,28,04,01,11.40
2016,04,28,04,02,11.40
2016,04,28,04,03,11.40
2016,04,28,04,04,11.40
2016,04,28,04,05,11.40
2016,04,28,04,06,11.40
2016,04,28,04,07,11.40
2016,04,28,04,08,11.50
2016,04,28,04,09,11.40
2016,04,28,04,10,11.40
2016,04,28,04,11,11.40
2016,04,28,04,12,11.50
2016,04,28,04,13,11.50
2016,04,28,04,14,11.50
2016,04,28,04,15,11.50
2016,04,28,04,16,11.50
2016,04,28,04,17,11.50
2016,04,28,04,18,11.40
2016,04,28,04,19,11.40
2016,04,28,04,20,11.40
2016,04,28,04,21,11.40
2016,04,28,04,22,11.40
2016,04,28,04,23,11.40
2016,04,28,04,24,11.40
2016,04,28,04,25,11.40
2016,04,28,04,26,11.40
2016,04,28,04,27,11.30
2016,04,28,04,28,11.30
2016,04,28,04,29,11.30
2016,04,28,04,30,11.40
2016,04,28,04,31,11.30
2016,04,28,04,32,11.30
2016,04,28,04,33,11.30
2016,04,28,04,34,11.30
2016,04,28,04,35,11.30
2016,04,28,04,36,11.30
2016,04,28,04,37,11.30
2016,04,28,04,38,11.40
2016,04,28,04,39,11.40
2016,04,28,04,40,11.40
2016,04,28,04,41,11.30
2016,04,28,04,42,11.30
2016,04,28,04,43,11.30
2016,04,28,04,44,11.30
2016,04,28,04,45,11.30
2016,04,28,04,46,11.40
2016,04,28,04,47,11.40
2016,04,28,04,48,11.30
2016,04,28,04,49,11.30
2016,04,28,04,50,11.30
2016,04,28,04,51,11.30
2016,04,28,04,52,11.30
2016,04,28,04,53,11.30
2016,04,28,04,54,11.30
2016,04,28,04,55,11.30
2016,04,28,04,56,11.30
2016,04,28,04,57,11.30
2016,04,28,04,58,11.30
2016,04,28,04,59,11.30
2016,04,28,05,00,11.30
2016,04,28,05,01,11.30
2016,04,28,05,02,11.30
2016,04,28,05,03,11.30
2016,04,28,05,04,11.30
2016,04,28,05,05,11.30
2016,04,28,05,06,11.30
2016,04,28,05,07,11.30
2016,04,28,05,08,11.30
2016,04,28,05,09,11.30
2016,04,28,05,10,11.30
2016,04,28,05,11,11.30
2016,04,28,05,12,11.30
2016,04,28,05,13,11.30
2016,04,28,05,14,11.30
2016,04,28,05,15,11.30
2016,04,28,05,16,11.30
2016,04,28,05,17,11.30
2016,04,28,05,18,11.30
2016,04,28,05,19,11.30
2016,04,28,05,20,11.30
2016,04,28,05,21,11.30
2016,04,28,05,22,11.30
2016,04,28,05,23,11.30
2016,04,28,05,24,11.30
2016,04,28,05,25,11.30
2016,04,28,05,26,11.30
2016,04,28,05,27,11.30
2016,04,28,05,28,11.30
2016,04,28,05,29,11.30
2016,04,28,05,30,11.30
2016,04,28,05,31,11.30
2016,04,28,05,32,11.20
2016,04,28,05,33,11.30
2016,04,28,05,34,11.30
2016,04,28,05,35,11.30
2016,04,28,05,36,11.30
2016,04,28,05,37,11.20
2016,04,28,05,38,11.20
2016,04,28,05,39,11.20
2016,04,28,05,40,11.20
2016,04,28,05,41,11.20
2016,04,28,05,42,11.20
2016,04,28,05,43,11.20
2016,04,28,05,44,11.20
2016,04,28,05,45,11.20
2016,04,28,05,46,11.10
2016,04,28,05,47,11.10
2016,04,28,05,48,11.10
2016,04,28,05,49,11.10
2016,04,28,05,50,11.10
2016,04,28,05,51,11.10
2016,04,28,05,52,11.00
2016,04,28,05,53,11.00
2016,04,28,05,54,11.00
2016,04,28,05,55,11.00
2016,04,28,05,56,11.00
2016,04,28,05,57,11.00
2016,04,28,05,58,11.00
2016,04,28,05,59,11.00
2016,04,28,06,00,11.00
2016,04,28,06,01,10.90
2016,04,28,06,02,10.90
2016,04,28,06,03,10.90
2016,04,28,06,04,10.90
2016,04,28,06,05,10.80
2016,04,28,06,06,10.80
2016,04,28,06,07,10.80
2016,04,28,06,08,10.80
2016,04,28,06,09,10.80
2016,04,28,06,10,10.80
2016,04,28,06,11,10.80
2016,04,28,06,12,10.80
2016,04,28,06,13,10.80
2016,04,28,06,14,10.80
2016,04,28,06,15,10.80
2016,04,28,06,16,10.80
2016,04,28,06,17,10.80
2016,04,28,06,18,10.80
2016,04,28,06,19,10.80
2016,04,28,06,20,10.80
2016,04,28,06,21,10.80
2016,04,28,06,22,10.80
2016,04,28,06,23,10.80
2016,04,28,06,24,10.80
2016,04,28,06,25,10.80
2016,04,28,06,26,10.80
2016,04,28,06,27,10.80
2016,04,28,06,28,10.80
2016,04,28,06,29,10.80
2016,04,28,06,30,10.80
2016,04,28,06,31,10.80
2016,04,28,06,32,10.80
2016,04,28,06,33,10.80
2016,04,28,06,34,10.80
2016,04,28,06,35,10.80
2016,04,28,06,36,10.80
2016,04,28,06,37,10.80
2016,04,28,06,38,10.80
2016,04,28,06,39,10.80
2016,04,28,06,40,10.80
2016,04,28,06,41,10.80
2016,04,28,06,42,10.80
2016,04,28,06,43,10.80
2016,04,28,06,44,10.80
2016,04,28,06,45,10.80
2016,04,28,06,46,10.80
2016,04,28,06,47,10.80
2016,04,28,06,48,10.80
2016,04,28,06,49,10.80
2016,04,28,06,50,10.80
2016,04,28,06,51,10.80
2016,04,28,06,52,10.80
2016,04,28,06,53,10.80
2016,04,28,06,54,10.90
2016,04,28,06,55,10.90
2016,04,28,06,56,10.90
2016,04,28,06,57,10.90
2016,04,28,06,58,10.90
2016,04,28,06,59,10.90
2016,04,28,07,00,10.90
2016,04,28,07,01,10.90
2016,04,28,07,02,10.90
2016,04,28,07,03,10.90
2016,04,28,07,04,10.80
2016,04,28,07,05,10.80
2016,04,28,07,06,10.80
2016,04,28,07,07,10.80
2016,04,28,07,08,10.80
2016,04,28,07,09,10.90
2016,04,28,07,10,10.90
2016,04,28,07,11,10.90
2016,04,28,07,12,10.90
2016,04,28,07,13,10.90
2016,04,28,07,14,10.90
2016,04,28,07,15,10.90
2016,04,28,07,16,10.90
2016,04,28,07,17,11.00
2016,04,28,07,18,11.00
2016,04,28,07,19,10.90
2016,04,28,07,20,10.90
2016,04,28,07,21,10.90
2016,04,28,07,22,10.90
2016,04,28,07,23,10.90
2016,04,28,07,24,10.90
2016,04,28,07,25,10.90
2016,04,28,07,26,10.90
2016,04,28,07,27,10.90
2016,04,28,07,28,10.90
2016,04,28,07,29,10.90
2016,04,28,07,30,10.90
2016,04,28,07,31,10.90
2016,04,28,07,32,10.90
2016,04,28,07,33,11.00
2016,04,28,07,34,11.00
2016,04,28,07,35,11.00
2016,04,28,07,36,11.00
2016,04,28,07,37,11.00
2016,04,28,07,38,11.00
2016,04,28,07,39,11.00
2016,04,28,07,40,11.00
2016,04,28,07,41,11.00
2016,04,28,07,42,11.10
2016,04,28,07,43,11.10
2016,04,28,07,44,11.10
2016,04,28,07,45,11.10
2016,04,28,07,46,11.10
2016,04,28,07,47,11.10
2016,04,28,07,48,11.10
2016,04,28,07,49,11.10
2016,04,28,07,50,11.10
2016,04,28,07,51,11.10
2016,04,28,07,52,11.20
2016,04,28,07,53,11.20
2016,04,28,07,54,11.20
2016,04,28,07,55,11.20
2016,04,28,07,56,11.30
2016,04,28,07,57,11.30
2016,04,28,07,58,11.30
2016,04,28,07,59,11.30
2016,04,28,08,00,11.30
2016,04,28,08,01,11.30
2016,04,28,08,02,11.30
2016,04,28,08,03,11.30
2016,04,28,08,04,11.30
2016,04,28,08,05,11.30
2016,04,28,08,06,11.40
2016,04,28,08,07,11.40
2016,04,28,08,08,11.40
2016,04,28,08,09,11.40
2016,04,28,08,10,11.50
2016,04,28,08,11,11.50
2016,04,28,08,12,11.50
2016,04,28,08,13,11.60
2016,04,28,08,14,11.60
2016,04,28,08,15,11.70
2016,04,28,08,16,11.70
2016,04,28,08,17,11.70
2016,04,28,08,18,11.80
2016,04,28,08,19,11.80
2016,04,28,08,20,11.90
2016,04,28,08,21,11.90
2016,04,28,08,22,12.00
2016,04,28,08,23,12.00
2016,04,28,08,24,12.10
2016,04,28,08,25,12.10
2016,04,28,08,26,12.10
2016,04,28,08,27,12.10
2016,04,28,08,28,12.10
2016,04,28,08,29,12.20
2016,04,28,08,30,12.20
2016,04,28,08,31,12.20
2016,04,28,08,32,12.20
2016,04,28,08,33,12.30
2016,04,28,08,34,12.30
2016,04,28,08,35,12.30
2016,04,28,08,36,12.40
2016,04,28,08,37,12.40
2016,04,28,08,38,12.50
2016,04,28,08,39,12.60
2016,04,28,08,40,12.60
2016,04,28,08,41,12.70
2016,04,28,08,42,12.80
2016,04,28,08,43,12.80
2016,04,28,08,44,12.90
2016,04,28,08,45,12.90
2016,04,28,08,46,13.00
2016,04,28,08,47,13.10
2016,04,28,08,48,13.10
2016,04,28,08,49,13.20
2016,04,28,08,50,13.20
2016,04,28,08,51,13.20
2016,04,28,08,52,13.30
2016,04,28,08,53,13.30
2016,04,28,08,54,13.40
2016,04,28,08,55,13.50
2016,04,28,08,56,13.60
2016,04,28,08,57,13.70
2016,04,28,08,58,13.80
2016,04,28,08,59,13.80
2016,04,28,09,00,13.90
2016,04,28,09,01,13.90
2016,04,28,09,02,14.00
2016,04,28,09,03,14.10
2016,04,28,09,04,14.10
2016,04,28,09,05,14.20
2016,04,28,09,06,14.20
2016,04,28,09,07,14.30
2016,04,28,09,08,14.30
2016,04,28,09,09,14.30
2016,04,28,09,10,14.30
2016,04,28,09,11,14.30
2016,04,28,09,12,14.40
2016,04,28,09,13,14.40
2016,04,28,09,14,14.40
2016,04,28,09,15,14.40
2016,04,28,09,16,14.40
2016,04,28,09,17,14.50
2016,04,28,09,18,14.50
2016,04,28,09,19,14.60
2016,04,28,09,20,14.60
2016,04,28,09,21,14.70
2016,04,28,09,22,14.80
2016,04,28,09,23,14.90
2016,04,28,09,24,15.00
2016,04,28,09,25,15.00
2016,04,28,09,26,15.00
2016,04,28,09,27,15.00
2016,04,28,09,28,15.00
2016,04,28,09,29,15.00
2016,04,28,09,30,15.00
2016,04,28,09,31,15.00
2016,04,28,09,32,15.00
2016,04,28,09,33,15.00
2016,04,28,09,34,15.00
2016,04,28,09,35,15.00
2016,04,28,09,36,15.00
2016,04,28,09,37,15.00
2016,04,28,09,38,14.80
2016,04,28,09,39,14.70
2016,04,28,09,40,14.60
2016,04,28,09,41,14.60
2016,04,28,09,42,14.50
2016,04,28,09,43,14.50
2016,04,28,09,44,14.60
2016,04,28,09,45,14.70
2016,04,28,09,46,14.70
2016,04,28,09,47,14.80
2016,04,28,09,48,14.80
2016,04,28,09,49,14.80
2016,04,28,09,50,14.80
2016,04,28,09,51,14.80
2016,04,28,09,52,14.90
2016,04,28,09,53,15.00
2016,04,28,09,54,15.00
2016,04,28,09,55,15.00
2016,04,28,09,56,15.00
2016,04,28,09,57,15.00
2016,04,28,09,58,15.00
2016,04,28,09,59,15.10
2016,04,28,10,00,15.20
2016,04,28,10,01,15.30
2016,04,28,10,02,15.40
2016,04,28,10,03,15.50
2016,04,28,10,04,15.50
2016,04,28,10,05,15.60
2016,04,28,10,06,15.60
2016,04,28,10,07,15.70
2016,04,28,10,08,15.70
2016,04,28,10,09,15.70
2016,04,28,10,10,15.70
2016,04,28,10,11,15.70
2016,04,28,10,12,15.70
2016,04,28,10,13,15.70
2016,04,28,10,14,15.70
2016,04,28,10,15,15.70
2016,04,28,10,16,15.60
2016,04,28,10,17,15.60
2016,04,28,10,18,15.60
2016,04,28,10,19,15.60
2016,04,28,10,20,15.50
2016,04,28,10,21,15.40
2016,04,28,10,22,15.30
2016,04,28,10,23,15.20
2016,04,28,10,24,15.20
2016,04,28,10,25,15.20
2016,04,28,10,26,15.10
2016,04,28,10,27,15.10
2016,04,28,10,28,15.00
2016,04,28,10,29,15.00
2016,04,28,10,30,15.10
2016,04,28,10,31,15.10
2016,04,28,10,32,15.20
2016,04,28,10,33,15.20
2016,04,28,10,34,15.20
2016,04,28,10,35,15.20
2016,04,28,10,36,15.30
2016,04,28,10,37,15.30
2016,04,28,10,38,15.40
2016,04,28,10,39,15.40
2016,04,28,10,40,15.40
2016,04,28,10,41,15.50
2016,04,28,10,42,15.50
2016,04,28,10,43,15.60
2016,04,28,10,44,15.70
2016,04,28,10,45,15.90
2016,04,28,10,46,15.90
2016,04,28,10,47,16.10
2016,04,28,10,48,16.20
2016,04,28,10,49,16.20
2016,04,28,10,50,16.20
2016,04,28,10,51,16.20
2016,04,28,10,52,16.10
2016,04,28,10,53,16.00
2016,04,28,10,54,16.00
2016,04,28,10,55,16.00
2016,04,28,10,56,16.00
2016,04,28,10,57,16.00
2016,04,28,10,58,16.00
2016,04,28,10,59,16.00
2016,04,28,11,00,16.00
2016,04,28,11,01,16.10
2016,04,28,11,02,16.10
2016,04,28,11,03,16.10
2016,04,28,11,04,16.10
2016,04,28,11,05,16.10
2016,04,28,11,06,16.20
2016,04,28,11,07,16.20
2016,04,28,11,08,16.20
2016,04,28,11,09,16.20
2016,04,28,11,10,16.30
2016,04,28,11,11,16.30
2016,04,28,11,12,16.30
2016,04,28,11,13,16.30
2016,04,28,11,14,16.30
2016,04,28,11,15,16.40
2016,04,28,11,16,16.40
2016,04,28,11,17,16.50
2016,04,28,11,18,16.50
2016,04,28,11,19,16.50
2016,04,28,11,20,16.50
2016,04,28,11,21,16.50
2016,04,28,11,22,16.50
2016,04,28,11,23,16.50
2016,04,28,11,24,16.60
2016,04,28,11,25,16.60
2016,04,28,11,26,16.60
2016,04,28,11,27,16.70
2016,04,28,11,28,16.70
2016,04,28,11,29,16.80
2016,04,28,11,30,16.90
2016,04,28,11,31,16.90
2016,04,28,11,32,17.00
2016,04,28,11,33,17.10
2016,04,28,11,34,17.10
2016,04,28,11,35,17.10
2016,04,28,11,36,17.10
2016,04,28,11,37,17.20
2016,04,28,11,38,17.20
2016,04,28,11,39,17.10
2016,04,28,11,40,17.10
2016,04,28,11,41,17.10
2016,04,28,11,42,17.10
2016,04,28,11,43,17.10
2016,04,28,11,44,17.00
2016,04,28,11,45,17.00
2016,04,28,11,46,16.90
2016,04,28,11,47,16.90
2016,04,28,11,48,16.90
2016,04,28,11,49,17.00
2016,04,28,11,50,17.10
2016,04,28,11,51,17.10
2016,04,28,11,52,17.10
2016,04,28,11,53,17.00
2016,04,28,11,54,16.90
2016,04,28,11,55,16.90
2016,04,28,11,56,16.80
2016,04,28,11,57,16.80
2016,04,28,11,58,16.80
2016,04,28,11,59,16.90
2016,04,28,12,00,16.90
2016,04,28,12,01,17.00
2016,04,28,12,02,17.00
2016,04,28,12,03,17.00
2016,04,28,12,04,17.00
2016,04,28,12,05,17.00
2016,04,28,12,06,16.80
2016,04,28,12,07,16.70
2016,04,28,12,08,16.60
2016,04,28,12,09,16.60
2016,04,28,12,10,16.60
2016,04,28,12,11,16.50
2016,04,28,12,12,16.50
2016,04,28,12,13,16.50
2016,04,28,12,14,16.40
2016,04,28,12,15,16.40
2016,04,28,12,16,16.50
2016,04,28,12,17,16.50
2016,04,28,12,18,16.60
2016,04,28,12,19,16.70
2016,04,28,12,20,16.70
2016,04,28,12,21,16.80
2016,04,28,12,22,16.80
2016,04,28,12,23,16.90
2016,04,28,12,24,16.90
2016,04,28,12,25,16.90
2016,04,28,12,26,16.90
2016,04,28,12,27,16.90
2016,04,28,12,28,17.00
2016,04,28,12,29,17.00
2016,04,28,12,30,17.10
2016,04,28,12,31,17.20
2016,04,28,12,32,17.30
2016,04,28,12,33,17.40
2016,04,28,12,34,17.40
2016,04,28,12,35,17.50
2016,04,28,12,36,17.50
2016,04,28,12,37,17.40
2016,04,28,12,38,17.30
2016,04,28,12,39,17.20
2016,04,28,12,40,17.10
2016,04,28,12,41,17.10
2016,04,28,12,42,17.10
2016,04,28,12,43,17.10
2016,04,28,12,44,17.00
2016,04,28,12,45,16.90
2016,04,28,12,46,17.00
2016,04,28,12,47,17.00
2016,04,28,12,48,17.10
2016,04,28,12,49,17.20
2016,04,28,12,50,17.30
2016,04,28,12,51,17.40
2016,04,28,12,52,17.50
2016,04,28,12,53,17.50
2016,04,28,12,54,17.40
2016,04,28,12,55,17.40
2016,04,28,12,56,17.30
2016,04,28,12,57,17.30
2016,04,28,12,58,17.30
2016,04,28,12,59,17.30
2016,04,28,13,00,17.20
2016,04,28,13,01,17.20
2016,04,28,13,02,17.20
2016,04,28,13,03,17.20
2016,04,28,13,04,17.10
2016,04,28,13,05,17.10
2016,04,28,13,06,17.10
2016,04,28,13,07,17.10
2016,04,28,13,08,17.10
2016,04,28,13,09,17.10
2016,04,28,13,10,17.00
2016,04,28,13,11,17.10
2016,04,28,13,12,17.10
2016,04,28,13,13,17.20
2016,04,28,13,14,17.20
2016,04,28,13,15,17.20
2016,04,28,13,16,17.30
2016,04,28,13,17,17.30
2016,04,28,13,18,17.30
2016,04,28,13,19,17.30
2016,04,28,13,20,17.40
2016,04,28,13,21,17.40
2016,04,28,13,22,17.40
2016,04,28,13,23,17.40
2016,04,28,13,24,17.40
2016,04,28,13,25,17.50
2016,04,28,13,26,17.60
2016,04,28,13,27,17.70
2016,04,28,13,28,17.70
2016,04,28,13,29,17.80
2016,04,28,13,30,17.80
2016,04,28,13,31,17.80
2016,04,28,13,32,17.70
2016,04,28,13,33,17.70
2016,04,28,13,34,17.70
2016,04,28,13,35,17.70
2016,04,28,13,36,17.70
2016,04,28,13,37,17.70
2016,04,28,13,38,17.70
2016,04,28,13,39,17.60
2016,04,28,13,40,17.60
2016,04,28,13,41,17.60
2016,04,28,13,42,17.60
2016,04,28,13,43,17.60
2016,04,28,13,44,17.70
2016,04,28,13,45,17.70
2016,04,28,13,46,17.70
2016,04,28,13,47,17.80
2016,04,28,13,48,17.80
2016,04,28,13,49,17.80
2016,04,28,13,50,17.80
2016,04,28,13,51,17.80
2016,04,28,13,52,17.80
2016,04,28,13,53,17.80
2016,04,28,13,54,17.80
2016,04,28,13,55,17.70
2016,04,28,13,56,17.70
2016,04,28,13,57,17.80
2016,04,28,13,58,17.80
2016,04,28,13,59,17.80
2016,04,28,14,00,17.80
2016,04,28,14,01,17.90
2016,04,28,14,02,17.90
2016,04,28,14,03,18.00
2016,04,28,14,04,18.00
2016,04,28,14,05,18.10
2016,04,28,14,06,18.10
2016,04,28,14,07,18.10
2016,04,28,14,08,18.10
2016,04,28,14,09,18.10
2016,04,28,14,10,18.00
2016,04,28,14,11,18.00
2016,04,28,14,12,17.80
2016,04,28,14,13,17.80
2016,04,28,14,14,17.80
2016,04,28,14,15,17.90
2016,04,28,14,16,17.90
2016,04,28,14,17,17.90
2016,04,28,14,18,18.00
2016,04,28,14,19,18.00
2016,04,28,14,20,17.90
2016,04,28,14,21,17.90
2016,04,28,14,22,17.90
2016,04,28,14,23,18.00
2016,04,28,14,24,18.00
2016,04,28,14,25,18.10
2016,04,28,14,26,18.20
2016,04,28,14,27,18.20
2016,04,28,14,28,18.20
2016,04,28,14,29,18.30
2016,04,28,14,30,18.30
2016,04,28,14,31,18.40
2016,04,28,14,32,18.40
2016,04,28,14,33,18.50
2016,04,28,14,34,18.50
2016,04,28,14,35,18.60
2016,04,28,14,36,18.60
2016,04,28,14,37,18.50
2016,04,28,14,38,18.50
2016,04,28,14,39,18.50
2016,04,28,14,40,18.60
2016,04,28,14,41,18.60
2016,04,28,14,42,18.70
2016,04,28,14,43,18.80
2016,04,28,14,44,18.80
2016,04,28,14,45,18.90
2016,04,28,14,46,18.90
2016,04,28,14,47,19.00
2016,04,28,14,48,19.00
2016,04,28,14,49,19.10
2016,04,28,14,50,19.20
2016,04,28,14,51,19.20
2016,04,28,14,52,19.10
2016,04,28,14,53,19.10
2016,04,28,14,54,19.10
2016,04,28,14,55,19.20
2016,04,28,14,56,19.20
2016,04,28,14,57,19.30
2016,04,28,14,58,19.30
2016,04,28,14,59,19.40
2016,04,28,15,00,19.50
2016,04,28,15,01,19.60
2016,04,28,15,02,19.70
2016,04,28,15,03,19.70
2016,04,28,15,04,19.80
2016,04,28,15,05,19.80
2016,04,28,15,06,19.70
2016,04,28,15,07,19.70
2016,04,28,15,08,19.70
2016,04,28,15,09,19.70
2016,04,28,15,10,19.80
2016,04,28,15,11,19.70
2016,04,28,15,12,19.70
2016,04,28,15,13,19.70
2016,04,28,15,14,19.60
2016,04,28,15,15,19.60
2016,04,28,15,16,19.60
2016,04,28,15,17,19.60
2016,04,28,15,18,19.60
2016,04,28,15,19,19.60
2016,04,28,15,20,19.60
2016,04,28,15,21,19.60
2016,04,28,15,22,19.60
2016,04,28,15,23,19.60
2016,04,28,15,24,19.60
2016,04,28,15,25,19.60
2016,04,28,15,26,19.60
2016,04,28,15,27,19.50
2016,04,28,15,28,19.50
2016,04,28,15,29,19.40
2016,04,28,15,30,19.40
2016,04,28,15,31,19.50
2016,04,28,15,32,19.50
2016,04,28,15,33,19.50
2016,04,28,15,34,19.40
2016,04,28,15,35,19.40
2016,04,28,15,36,19.40
2016,04,28,15,37,19.40
2016,04,28,15,38,19.50
2016,04,28,15,39,19.50
2016,04,28,15,40,19.60
2016,04,28,15,41,19.60
2016,04,28,15,42,19.60
2016,04,28,15,43,19.60
2016,04,28,15,44,19.60
2016,04,28,15,45,19.50
2016,04,28,15,46,19.50
2016,04,28,15,47,19.40
2016,04,28,15,48,19.40
2016,04,28,15,49,19.40
2016,04,28,15,50,19.50
2016,04,28,15,51,19.50
2016,04,28,15,52,19.60
2016,04,28,15,53,19.60
2016,04,28,15,54,19.60
2016,04,28,15,55,19.60
2016,04,28,15,56,19.50
2016,04,28,15,57,19.40
2016,04,28,15,58,19.30
2016,04,28,15,59,19.40
2016,04,28,16,00,19.40
2016,04,28,16,01,19.50
2016,04,28,16,02,19.60
2016,04,28,16,03,19.60
2016,04,28,16,04,19.50
2016,04,28,16,05,19.40
2016,04,28,16,06,19.40
2016,04,28,16,07,19.40
2016,04,28,16,08,19.50
2016,04,28,16,09,19.60
2016,04,28,16,10,19.60
2016,04,28,16,11,19.60
2016,04,28,16,12,19.70
2016,04,28,16,13,19.70
2016,04,28,16,14,19.60
2016,04,28,16,15,19.50
2016,04,28,16,16,19.40
2016,04,28,16,17,19.30
2016,04,28,16,18,19.30
2016,04,28,16,19,19.30
2016,04,28,16,20,19.30
2016,04,28,16,21,19.30
2016,04,28,16,22,19.30
2016,04,28,16,23,19.30
2016,04,28,16,24,19.30
2016,04,28,16,25,19.40
2016,04,28,16,26,19.40
2016,04,28,16,27,19.50
2016,04,28,16,28,19.60
2016,04,28,16,29,19.60
2016,04,28,16,30,19.70
2016,04,28,16,31,19.60
2016,04,28,16,32,19.60
2016,04,28,16,33,19.50
2016,04,28,16,34,19.50
2016,04,28,16,35,19.60
2016,04,28,16,36,19.60
2016,04,28,16,37,19.70
2016,04,28,16,38,19.70
2016,04,28,16,39,19.70
2016,04,28,16,40,19.70
2016,04,28,16,41,19.70
2016,04,28,16,42,19.70
2016,04,28,16,43,19.70
2016,04,28,16,44,19.70
2016,04,28,16,45,19.60
2016,04,28,16,46,19.50
2016,04,28,16,47,19.40
2016,04,28,16,48,19.40
2016,04,28,16,49,19.30
2016,04,28,16,50,19.20
2016,04,28,16,51,19.10
2016,04,28,16,52,19.00
2016,04,28,16,53,18.90
2016,04,28,16,54,18.90
2016,04,28,16,55,18.90
2016,04,28,16,56,18.90
2016,04,28,16,57,19.00
2016,04,28,16,58,19.00
2016,04,28,16,59,19.10
2016,04,28,17,00,19.10
2016,04,28,17,01,19.20
2016,04,28,17,02,19.20
2016,04,28,17,03,19.20
2016,04,28,17,04,19.20
2016,04,28,17,05,19.20
2016,04,28,17,06,19.20
2016,04,28,17,07,19.20
2016,04,28,17,08,19.30
2016,04,28,17,09,19.30
2016,04,28,17,10,19.30
2016,04,28,17,11,19.20
2016,04,28,17,12,19.20
2016,04,28,17,13,19.10
2016,04,28,17,14,19.20
2016,04,28,17,15,19.20
2016,04,28,17,16,19.30
2016,04,28,17,17,19.30
2016,04,28,17,18,19.30
2016,04,28,17,19,19.30